Weather in Rakpas

Russia / Komi Republic     62°40′52″N   51°06′48″E
temp.,
°C
wind,
m/s
gust,
m/s
humid.,
%
clouds,
%
prec.,
mm/h
press.,
hPa
HPBL,
m
28 february, sun
sun2800:00−21sse11990 0.0 101320
03:00−21sse12983 0.0 101420
06:00−22sse129870 0.0 101420
09:00−18s239562 0.0 1015169
12:00−14ssw238893 0.0 1015369
15:00−13s239197 0.0 1015396
18:00−15ssw229691 0.0 101629
21:00−16ssw249795 0.1 101791
1 march, mon
mon100:00−18ssw229889 0.0 101741
03:00−19ssw259988 0.1 101789
06:00−19ssw379876 0.0 1015175
09:00−17ssw499684 0.0 1014276
12:00−13ssw51094100 0.1 1010382
15:00−10ssw51293100 0.1 1006531
18:00−9ssw61294100 1.0 1002607
21:00−8ssw51294100 2.3 999601
2 march, tue
tue200:00−7s51294100 1.3 996546
03:00−6s41095100 2.5 994453
06:00−6s3896100 0.9 993369
09:00−5ssw2496100 1.7 994231
12:00−1nw2594100 0.3 994481
15:00−2nw3593100 0.4 995554
18:00−4wnw2696100 0.1 995342
21:00−5wnw2595100 0.3 996185
3 march, wed
wed300:00−6nw399692 0.3 997372
03:00−7nnw4109296 0.7 999582
06:00−13wnw379687 0.0 1000185
09:00−11wnw379577 0.0 1001277
12:00−7wnw3790100 0.1 1001772
15:00−5wnw4887100 0.4 1002915
18:00−9wnw3109199 0.1 1002305
21:00−12wnw389584 0.1 1003204
4 march, thu
thu400:00−13wnw259742 0.0 100395
03:00−13w269757 0.1 1003131
06:00−16wsw239860 0.0 100333
09:00−13ssw249673 0.1 1001195
12:00−9s489395 0.0 998390
15:00−7s5129497 0.2 995562
18:00−7s51393100 0.9 991797
21:00−6s61294100 1.8 986764